Wetterverlauf

Letzte Wetterlage 23.10.2014 07:30
Wetterdiagramm
Tabellarische Darstellung
Datum Temperatur Windchill Feuchte Luftdruck Windrichtung Windstärke Niederschlag
23.10.2014 07:30 8,7 °C 8,7 °C 85 % 1019,1 hPa 248 0.5 0,00 mm
23.10.2014 07:09 8,8 °C 8,8 °C 85 % 1019,1 hPa 225 0.3 0,00 mm
23.10.2014 06:49 8,8 °C 8,8 °C 84 % 1019,1 hPa 225 0.4 0,00 mm
23.10.2014 06:28 8,9 °C 8,9 °C 83 % 1018,1 hPa 248 0.5 0,00 mm
23.10.2014 06:07 8,9 °C 8,9 °C 83 % 1019,1 hPa 225 0.5 0,00 mm
23.10.2014 05:46 8,8 °C 8,8 °C 83 % 1018,0 hPa 248 0.7 0,00 mm
23.10.2014 05:25 8,8 °C 8,8 °C 83 % 1017,1 hPa 225 1.0 0,00 mm
23.10.2014 05:05 8,7 °C 8,7 °C 85 % 1017,1 hPa 225 0.9 0,00 mm
23.10.2014 04:45 8,8 °C 8,8 °C 84 % 1017,1 hPa 270 1.0 0,00 mm
23.10.2014 04:24 8,7 °C 8,7 °C 85 % 1017,1 hPa 248 1.1 0,00 mm
23.10.2014 04:03 8,8 °C 8,8 °C 85 % 1017,1 hPa 180 0.8 0,00 mm
23.10.2014 03:42 8,8 °C 8,8 °C 85 % 1017,0 hPa 225 0.8 0,00 mm
23.10.2014 03:22 8,8 °C 8,8 °C 85 % 1017,1 hPa 203 1.0 0,00 mm
23.10.2014 03:01 8,9 °C 8,9 °C 86 % 1017,1 hPa 225 0.6 0,00 mm
23.10.2014 02:40 8,9 °C 8,9 °C 87 % 1017,1 hPa 225 0.8 0,00 mm
23.10.2014 02:20 8,9 °C 8,9 °C 86 % 1017,1 hPa 248 0.8 0,00 mm
23.10.2014 01:59 9,0 °C 9,0 °C 86 % 1017,1 hPa 180 0.9 0,00 mm
23.10.2014 01:38 8,9 °C 8,9 °C 88 % 1017,1 hPa 225 0.8 0,00 mm
23.10.2014 01:17 8,9 °C 8,9 °C 90 % 1017,0 hPa 203 0.9 0,00 mm
23.10.2014 00:56 8,9 °C 8,9 °C 92 % 1016,1 hPa 225 1.0 0,00 mm
23.10.2014 00:36 8,9 °C 8,9 °C 94 % 1016,1 hPa 225 0.7 0,00 mm
23.10.2014 00:15 8,9 °C 8,9 °C 95 % 1016,1 hPa 203 0.9 0,00 mm
Empfehlen Sie wetter.com
| Mehr
Neue Wetterwarnung

Neue Niederschlagsmeldung
Neue Meldung
Regen Liveticker
    sehr starker Regen/Gewitter
    starker Regen/Gewitter
    mäßiger bis starker Regen
    mäßiger Regen
    leichter bis mäßiger Regen
    kein Regen